Location: Dunedin
(45.8900°S, 170.5000°E)
Time: 08:57:08
(UTC+12:00)

ISS - Visible Passes

Search period start: 28 June 2017 00:00
Search period end: 08 July 2017 00:00
Orbit: 401 x 408 km, 51.6° (Epoch: 28 June)

Date Brightness Start Highest point End Pass type
(mag) Time Alt. Az. Time Alt. Az. Time Alt. Az.
29 Jun -1.9 19:03:07 10° NNW 19:04:53 21° NNE 19:04:53 21° NNE visible
30 Jun -1.6 18:11:57 10° N 18:13:53 15° NE 18:15:01 13° ENE visible
30 Jun -1.1 19:46:35 10° WNW 19:47:42 19° WNW 19:47:42 19° WNW visible
01 Jul -3.5 18:54:28 10° NW 18:57:44 52° NE 18:57:45 52° NE visible
02 Jul -2.6 18:02:36 10° NNW 18:05:35 30° NE 18:07:45 15° E visible
02 Jul -1.6 19:38:39 10° W 19:40:25 27° W 19:40:25 27° W visible
03 Jul -3.8 18:46:17 10° WNW 18:49:38 80° SSW 18:50:20 52° SE visible
04 Jul -3.6 17:54:03 10° NW 17:57:21 63° NNE 18:00:13 13° ESE visible
04 Jul -1.9 19:30:52 10° W 19:32:52 27° SW 19:32:52 27° SW visible
05 Jul -3.2 18:38:20 10° W 18:41:35 47° SSW 18:42:42 32° SSE visible
06 Jul -3.6 17:45:52 10° WNW 17:49:13 69° SSW 17:52:30 10° ESE visible
06 Jul -1.9 19:23:03 10° WSW 19:25:09 26° SW 19:25:09 26° SW visible
07 Jul -2.7 18:30:30 10° W 18:33:36 34° S 18:34:56 24° SSE visible
07 Jul -0.3 20:07:34 10° WSW 20:07:35 10° WSW 20:07:35 10° WSW visible
